QPF
0.02 0.02 0.02 0.02 0.02 0.04 0.05 0.02 0.01 0.00 0.00 0.00 0.00 0.01 0.02 0.02 0.02 0.01 0.01 0.01 0.01 0.01 0.02 0.01 0.01 0.03 0.03 0.01 0.01 0.00 0.00 0.00 0.01 0.01 0.01 0.02 0.03 0.06 0.10 0.05 0.03 0.04 0.04
0.01 0.02 0.03 0.02 0.02 0.02 0.06 0.03 0.01 0.00 0.00 0.00 0.00 0.00 0.00 0.00 0.01 0.00 0.00 0.00 0.01 0.01 0.01 0.01 0.01 0.02 0.03 0.02 0.01 0.00 0.01 0.00 0.01 0.01 0.02 0.03 0.04 0.06 0.09 0.06 0.06 0.06 0.05
0.01 0.01 0.03 0.02 0.01 0.01 0.01 0.01 0.00 0.00 0.00 0.00 0.01 0.00 0.00 0.00 0.00 0.01 0.01 0.01 0.01 0.01 0.01 0.01 0.01 0.02 0.02 0.02 0.01 0.00 0.00 0.01 0.01 0.02 0.03 0.03 0.04 0.06 0.08 0.07 0.08 0.07 0.08
0.01 0.02 0.02 0.02 0.01 0.01 0.00 0.00 0.01 0.01 0.00 0.01 0.01 0.00 0.00 0.00 0.01 0.01 0.01 0.01 0.01 0.01 0.01 0.01 0.01 0.01 0.02 0.01 0.01 0.00 0.00 0.01 0.01 0.02 0.02 0.02 0.02 0.02 0.05 0.05 0.05 0.06 0.07
0.01 0.01 0.02 0.02 0.01 0.01 0.00 0.00 0.00 0.01 0.01 0.01 0.01 0.01 0.00 0.00 0.00 0.01 0.02 0.01 0.01 0.01 0.01 0.01 0.01 0.01 0.01 0.02 0.01 0.02 0.01 0.01 0.01 0.01 0.01 0.01 0.01 0.01 0.02 0.04 0.04 0.04 0.04
0.01 0.01 0.02 0.03 0.02 0.01 0.01 0.00 0.00 0.00 0.01 0.01 0.01 0.01 0.00 0.00 0.00 0.01 0.01 0.01 0.01 0.01 0.02 0.02 0.01 0.01 0.01 0.01 0.02 0.02 0.02 0.01 0.00 0.00 0.01 0.01 0.00 0.01 0.01 0.02 0.02 0.02 0.03
0.01 0.01 0.02 0.03 0.03 0.02 0.01 0.01 0.01 0.01 0.01 0.00 0.00 0.00 0.00 0.00 0.00 0.01 0.01 0.01 0.01 0.01 0.01 0.01 0.01 0.00 0.01 0.01 0.02 0.02 0.02 0.01 0.01 0.00 0.00 0.00 0.00 0.01 0.01 0.01 0.01 0.02 0.02
0.00 0.01 0.01 0.02 0.02 0.02 0.02 0.01 0.02 0.01 0.01 0.01 0.01 0.01 0.01 0.01 0.00 0.00 0.01 0.00 0.00 0.01 0.02 0.01 0.01 0.01 0.01 0.01 0.01 0.02 0.02 0.01 0.01 0.01 0.01 0.01 0.01 0.01 0.01 0.01 0.01 0.01 0.02
0.00 0.00 0.01 0.01 0.01 0.01 0.01 0.01 0.01 0.01 0.00 0.01 0.01 0.01 0.01 0.00 0.00 0.00 0.01 0.00 0.00 0.01 0.01 0.01 0.01 0.01 0.01 0.01 0.01 0.01 0.01 0.01 0.00 0.00 0.01 0.01 0.01 0.00 0.01 0.01 0.01 0.01 0.02
0.00 0.00 0.00 0.01 0.01 0.01 0.01 0.01 0.02 0.01 0.01 0.01 0.01 0.01 0.01 0.01 0.01 0.01 0.01 0.01 0.02 0.02 0.01 0.01 0.01 0.01 0.01 0.01 0.01 0.01 0.01 0.00 0.00 0.00 0.01 0.01 0.00 0.00 0.00 0.00 0.00 0.00 0.01
0.00 0.00 0.00 0.01 0.01 0.01 0.01 0.01 0.02 0.02 0.03 0.02 0.01 0.01 0.01 0.01 0.02 0.01 0.01 0.01 0.01 0.03 0.02 0.01 0.00 0.00 0.01 0.02 0.02 0.02 0.02 0.01 0.00 0.00 0.00 0.00 0.00 0.00 0.00 0.00 0.00 0.00 0.00
0.00 0.00 0.00 0.01 0.01 0.01 0.01 0.01 0.01 0.01 0.02 0.02 0.02 0.01 0.01 0.01 0.01 0.00 0.00 0.00 0.00 0.01 0.01 0.02 0.01 0.01 0.01 0.02 0.02 0.01 0.01 0.01 0.01 0.01 0.01 0.01 0.00 0.00 0.00 0.00 0.00 0.00 0.00
0.00 0.01 0.01 0.01 0.01 0.01 0.01 0.01 0.01 0.01 0.01 0.02 0.02 0.01 0.01 0.01 0.00 0.00 0.00 0.00 0.01 0.01 0.01 0.01 0.01 0.01 0.02 0.02 0.02 0.01 0.01 0.01 0.01 0.01 0.01 0.00 0.00 0.00 0.00 0.00 0.00 0.00 0.00
0.01 0.01 0.01 0.01 0.01 0.01 0.01 0.01 0.01 0.01 0.02 0.02 0.02 0.02 0.01 0.01 0.01 0.00 0.00 0.00 0.01 0.01 0.01 0.01 0.01 0.01 0.01 0.01 0.01 0.01 0.02 0.02 0.01 0.01 0.01 0.00 0.00 0.00 0.00 0.00 0.01 0.00 0.00
0.00 0.01 0.01 0.01 0.01 0.01 0.01 0.01 0.01 0.01 0.01 0.02 0.02 0.02 0.01 0.01 0.01 0.01 0.01 0.02 0.02 0.01 0.01 0.00 0.01 0.00 0.01 0.01 0.01 0.01 0.01 0.02 0.01 0.01 0.00 0.01 0.01 0.01 0.01 0.00 0.01 0.01 0.01
0.01 0.01 0.01 0.01 0.01 0.01 0.01 0.01 0.01 0.02 0.02 0.03 0.02 0.01 0.01 0.01 0.01 0.01 0.01 0.02 0.02 0.02 0.01 0.01 0.01 0.00 0.00 0.00 0.00 0.01 0.01 0.01 0.01 0.01 0.01 0.01 0.01 0.00 0.00 0.00 0.00 0.00 0.00
0.00 0.01 0.00 0.00 0.00 0.01 0.01 0.01 0.01 0.01 0.02 0.02 0.01 0.01 0.01 0.01 0.01 0.01 0.01 0.01 0.01 0.01 0.01 0.01 0.01 0.00 0.00 0.00 0.00 0.01 0.01 0.01 0.00 0.00 0.00 0.00 0.00 0.00 0.00 0.00 0.00 0.00 0.00
0.00 0.00 0.00 0.00 0.01 0.01 0.02 0.02 0.01 0.01 0.02 0.02 0.02 0.01 0.01 0.01 0.02 0.02 0.01 0.01 0.00 0.01 0.01 0.01 0.01 0.00 0.00 0.00 0.01 0.01 0.00 0.00 0.00 0.00 0.00 0.00 0.00 0.00 0.00 0.00 0.00 0.00 0.00
0.00 0.00 0.00 0.01 0.01 0.01 0.01 0.01 0.01 0.01 0.02 0.02 0.02 0.01 0.01 0.01 0.01 0.01 0.01 0.01 0.01 0.01 0.01 0.01 0.01 0.00 0.01 0.01 0.01 0.01 0.00 0.00 0.00 0.00 0.00 0.00 0.00 0.00 0.00 0.00 0.00 0.00 0.00
0.01 0.01 0.00 0.01 0.01 0.01 0.02 0.02 0.01 0.01 0.01 0.01 0.01 0.01 0.01 0.02 0.02 0.02 0.02 0.02 0.02 0.01 0.01 0.01 0.01 0.01 0.02 0.03 0.02 0.01 0.00 0.00 0.00 0.00 0.00 0.00 0.00 0.00 0.00 0.00 0.00 0.00 0.00
0.01 0.01 0.01 0.01 0.01 0.01 0.01 0.01 0.01 0.01 0.01 0.01 0.01 0.01 0.01 0.02 0.03 0.03 0.03 0.02 0.02 0.02 0.02 0.02 0.02 0.02 0.02 0.02 0.02 0.01 0.01 0.00 0.00 0.00 0.00 0.00 0.00 0.00 0.00 0.00 0.00 0.00 0.00
0.01 0.01 0.01 0.01 0.01 0.01 0.01 0.01 0.01 0.01 0.01 0.01 0.00 0.00 0.01 0.02 0.04 0.04 0.02 0.02 0.02 0.03 0.04 0.03 0.02 0.01 0.01 0.01 0.01 0.01 0.01 0.01 0.00 0.00 0.00 0.00 0.01 0.00 0.00 0.00 0.00 0.00 0.00
0.01 0.02 0.02 0.02 0.02 0.01 0.01 0.01 0.01 0.01 0.01 0.01 0.00 0.00 0.01 0.01 0.01 0.02 0.02 0.03 0.03 0.03 0.04 0.04 0.03 0.02 0.01 0.01 0.01 0.01 0.01 0.01 0.01 0.01 0.01 0.01 0.01 0.00 0.00 0.00 0.00 0.00 0.00
0.01 0.02 0.02 0.02 0.02 0.02 0.02 0.02 0.01 0.01 0.00 0.01 0.01 0.01 0.01 0.01 0.01 0.01 0.01 0.02 0.02 0.03 0.03 0.03 0.03 0.03 0.03 0.03 0.02 0.02 0.02 0.02 0.02 0.01 0.02 0.01 0.01 0.01 0.01 0.00 0.00 0.00 0.00
0.01 0.01 0.02 0.02 0.02 0.02 0.02 0.02 0.02 0.02 0.01 0.02 0.02 0.01 0.01 0.01 0.01 0.01 0.01 0.01 0.01 0.02 0.02 0.02 0.03 0.04 0.04 0.03 0.02 0.02 0.02 0.02 0.02 0.02 0.01 0.01 0.00 0.00 0.01 0.01 0.01 0.01 0.01
0.01 0.02 0.02 0.02 0.02 0.01 0.01 0.01 0.01 0.01 0.02 0.02 0.02 0.02 0.01 0.01 0.02 0.03 0.02 0.02 0.01 0.02 0.01 0.01 0.02 0.03 0.03 0.04 0.03 0.02 0.01 0.01 0.01 0.01 0.01 0.01 0.01 0.01 0.01 0.01 0.01 0.01 0.01
MSLP
1018.27 1018.24 1018.16 1018.02 1017.87 1017.71 1017.59 1017.53 1017.55 1017.65 1017.83 1018.05 1018.29 1018.51 1018.68 1018.80 1018.84 1018.83 1018.79 1018.73 1018.71 1018.73 1018.82 1019.00 1019.26 1019.59 1019.98 1020.41 1020.85 1021.29 1021.71 1022.10 1022.45 1022.77 1023.05 1023.31 1023.53 1023.73 1023.89 1024.02 1024.11 1024.16 1024.16
1018.37 1018.43 1018.41 1018.31 1018.13 1017.93 1017.76 1017.65 1017.64 1017.75 1017.96 1018.24 1018.55 1018.85 1019.09 1019.25 1019.31 1019.29 1019.21 1019.11 1019.04 1019.02 1019.08 1019.22 1019.46 1019.76 1020.11 1020.49 1020.89 1021.28 1021.66 1022.02 1022.37 1022.71 1023.04 1023.35 1023.65 1023.93 1024.17 1024.37 1024.52 1024.62 1024.66
1018.43 1018.59 1018.64 1018.57 1018.40 1018.17 1017.96 1017.80 1017.77 1017.87 1018.10 1018.43 1018.80 1019.16 1019.47 1019.67 1019.75 1019.74 1019.66 1019.54 1019.44 1019.39 1019.42 1019.54 1019.73 1019.99 1020.28 1020.60 1020.91 1021.23 1021.55 1021.87 1022.20 1022.54 1022.91 1023.28 1023.65 1024.01 1024.33 1024.61 1024.83 1024.98 1025.08
1018.44 1018.68 1018.80 1018.78 1018.64 1018.41 1018.17 1017.99 1017.93 1018.02 1018.26 1018.61 1019.03 1019.44 1019.79 1020.03 1020.15 1020.16 1020.09 1019.98 1019.89 1019.83 1019.85 1019.94 1020.10 1020.30 1020.53 1020.76 1021.00 1021.23 1021.47 1021.73 1022.03 1022.36 1022.74 1023.14 1023.57 1023.98 1024.37 1024.71 1025.00 1025.21 1025.36
1018.40 1018.71 1018.89 1018.93 1018.82 1018.62 1018.38 1018.19 1018.12 1018.20 1018.44 1018.80 1019.23 1019.67 1020.05 1020.32 1020.48 1020.52 1020.48 1020.41 1020.33 1020.30 1020.32 1020.40 1020.54 1020.70 1020.88 1021.04 1021.19 1021.34 1021.51 1021.70 1021.94 1022.24 1022.60 1023.01 1023.45 1023.89 1024.32 1024.70 1025.03 1025.29 1025.48
1018.29 1018.65 1018.90 1019.00 1018.95 1018.78 1018.57 1018.40 1018.33 1018.40 1018.63 1018.98 1019.41 1019.85 1020.24 1020.54 1020.73 1020.81 1020.81 1020.78 1020.74 1020.75 1020.80 1020.90 1021.03 1021.18 1021.31 1021.43 1021.53 1021.61 1021.70 1021.83 1022.01 1022.25 1022.57 1022.94 1023.36 1023.79 1024.21 1024.60 1024.94 1025.23 1025.46
1018.13 1018.52 1018.83 1019.00 1019.01 1018.90 1018.73 1018.59 1018.53 1018.60 1018.81 1019.15 1019.56 1019.99 1020.38 1020.68 1020.89 1021.00 1021.05 1021.06 1021.08 1021.14 1021.23 1021.37 1021.53 1021.68 1021.82 1021.92 1021.98 1022.02 1022.06 1022.13 1022.25 1022.43 1022.67 1022.98 1023.33 1023.71 1024.09 1024.45 1024.78 1025.08 1025.33
1017.96 1018.37 1018.71 1018.93 1019.01 1018.96 1018.85 1018.74 1018.70 1018.78 1018.98 1019.29 1019.68 1020.08 1020.45 1020.75 1020.97 1021.11 1021.20 1021.26 1021.34 1021.45 1021.60 1021.78 1021.98 1022.17 1022.33 1022.44 1022.51 1022.54 1022.56 1022.59 1022.65 1022.77 1022.93 1023.15 1023.42 1023.71 1024.02 1024.33 1024.63 1024.91 1025.17
1017.82 1018.23 1018.59 1018.85 1018.97 1018.98 1018.92 1018.86 1018.84 1018.92 1019.11 1019.40 1019.75 1020.12 1020.47 1020.76 1020.99 1021.15 1021.27 1021.38 1021.51 1021.67 1021.88 1022.11 1022.36 1022.60 1022.80 1022.95 1023.05 1023.11 1023.13 1023.15 1023.18 1023.24 1023.33 1023.46 1023.63 1023.83 1024.05 1024.29 1024.54 1024.80 1025.05
1017.79 1018.16 1018.52 1018.79 1018.94 1018.99 1018.97 1018.93 1018.93 1019.01 1019.19 1019.45 1019.77 1020.12 1020.45 1020.73 1020.96 1021.15 1021.30 1021.45 1021.62 1021.83 1022.07 1022.35 1022.64 1022.93 1023.18 1023.39 1023.54 1023.64 1023.70 1023.73 1023.76 1023.78 1023.82 1023.88 1023.96 1024.07 1024.21 1024.38 1024.58 1024.81 1025.05
1017.92 1018.24 1018.56 1018.80 1018.95 1019.00 1018.99 1018.97 1018.97 1019.05 1019.21 1019.45 1019.75 1020.07 1020.39 1020.68 1020.93 1021.14 1021.32 1021.50 1021.71 1021.94 1022.21 1022.52 1022.84 1023.16 1023.46 1023.72 1023.93 1024.08 1024.20 1024.27 1024.31 1024.33 1024.35 1024.37 1024.39 1024.44 1024.51 1024.62 1024.78 1024.97 1025.21
1018.25 1018.50 1018.75 1018.93 1019.03 1019.05 1019.02 1018.98 1018.97 1019.03 1019.17 1019.39 1019.67 1019.99 1020.32 1020.62 1020.90 1021.14 1021.36 1021.58 1021.81 1022.06 1022.35 1022.66 1022.99 1023.32 1023.64 1023.94 1024.20 1024.41 1024.58 1024.70 1024.79 1024.84 1024.86 1024.87 1024.87 1024.88 1024.91 1024.98 1025.11 1025.28 1025.49
1018.80 1018.94 1019.08 1019.17 1019.19 1019.15 1019.06 1018.98 1018.94 1018.96 1019.08 1019.28 1019.55 1019.87 1020.22 1020.56 1020.88 1021.17 1021.45 1021.71 1021.96 1022.23 1022.51 1022.81 1023.13 1023.45 1023.77 1024.08 1024.36 1024.62 1024.84 1025.02 1025.15 1025.25 1025.30 1025.33 1025.33 1025.34 1025.36 1025.41 1025.51 1025.66 1025.86
1019.50 1019.53 1019.54 1019.51 1019.42 1019.28 1019.12 1018.97 1018.87 1018.85 1018.93 1019.11 1019.38 1019.71 1020.09 1020.48 1020.86 1021.23 1021.57 1021.88 1022.17 1022.45 1022.73 1023.01 1023.29 1023.58 1023.87 1024.16 1024.45 1024.73 1024.99 1025.22 1025.41 1025.55 1025.65 1025.71 1025.74 1025.76 1025.78 1025.83 1025.92 1026.05 1026.23
1020.28 1020.19 1020.07 1019.90 1019.69 1019.44 1019.18 1018.95 1018.78 1018.70 1018.73 1018.88 1019.14 1019.49 1019.91 1020.36 1020.83 1021.28 1021.69 1022.08 1022.41 1022.72 1022.99 1023.24 1023.49 1023.73 1023.98 1024.24 1024.52 1024.80 1025.07 1025.33 1025.56 1025.75 1025.90 1026.00 1026.06 1026.10 1026.13 1026.18 1026.25 1026.37 1026.52
1021.03 1020.82 1020.57 1020.28 1019.94 1019.58 1019.22 1018.90 1018.65 1018.50 1018.48 1018.60 1018.85 1019.21 1019.67 1020.18 1020.73 1021.27 1021.78 1022.24 1022.64 1022.98 1023.26 1023.50 1023.71 1023.91 1024.11 1024.33 1024.57 1024.84 1025.12 1025.39 1025.65 1025.87 1026.05 1026.19 1026.28 1026.33 1026.37 1026.42 1026.48 1026.57 1026.70
1021.65 1021.33 1020.97 1020.57 1020.13 1019.67 1019.22 1018.81 1018.48 1018.26 1018.18 1018.25 1018.48 1018.85 1019.34 1019.91 1020.53 1021.16 1021.76 1022.31 1022.79 1023.18 1023.48 1023.72 1023.92 1024.08 1024.25 1024.43 1024.64 1024.88 1025.15 1025.43 1025.70 1025.94 1026.14 1026.30 1026.40 1026.46 1026.50 1026.54 1026.58 1026.65 1026.75
1022.05 1021.65 1021.21 1020.73 1020.22 1019.68 1019.16 1018.67 1018.27 1017.98 1017.83 1017.86 1018.05 1018.40 1018.90 1019.52 1020.20 1020.91 1021.60 1022.23 1022.78 1023.23 1023.59 1023.85 1024.04 1024.20 1024.35 1024.51 1024.70 1024.92 1025.18 1025.46 1025.73 1025.98 1026.19 1026.35 1026.45 1026.52 1026.55 1026.56 1026.59 1026.63 1026.70
1022.21 1021.76 1021.27 1020.75 1020.18 1019.60 1019.02 1018.48 1018.01 1017.66 1017.45 1017.41 1017.55 1017.88 1018.37 1019.00 1019.72 1020.49 1021.24 1021.96 1022.58 1023.10 1023.51 1023.81 1024.04 1024.22 1024.37 1024.53 1024.72 1024.94 1025.20 1025.48 1025.75 1026.01 1026.22 1026.38 1026.48 1026.53 1026.54 1026.54 1026.55 1026.57 1026.62
1022.14 1021.67 1021.17 1020.62 1020.04 1019.43 1018.82 1018.24 1017.72 1017.30 1017.03 1016.92 1017.01 1017.29 1017.76 1018.38 1019.11 1019.91 1020.72 1021.48 1022.17 1022.76 1023.23 1023.60 1023.87 1024.08 1024.27 1024.46 1024.67 1024.92 1025.19 1025.48 1025.76 1026.02 1026.24 1026.39 1026.49 1026.54 1026.54 1026.53 1026.52 1026.54 1026.58
1021.91 1021.44 1020.94 1020.40 1019.81 1019.20 1018.58 1017.96 1017.40 1016.93 1016.60 1016.43 1016.45 1016.67 1017.09 1017.69 1018.41 1019.22 1020.05 1020.86 1021.60 1022.24 1022.77 1023.20 1023.53 1023.80 1024.04 1024.28 1024.53 1024.81 1025.11 1025.43 1025.73 1026.01 1026.24 1026.41 1026.52 1026.57 1026.58 1026.57 1026.56 1026.58 1026.63
1021.59 1021.14 1020.65 1020.12 1019.55 1018.94 1018.30 1017.67 1017.07 1016.56 1016.16 1015.93 1015.89 1016.05 1016.42 1016.97 1017.67 1018.46 1019.30 1020.12 1020.90 1021.58 1022.17 1022.65 1023.05 1023.38 1023.68 1023.98 1024.28 1024.61 1024.96 1025.31 1025.66 1025.97 1026.23 1026.42 1026.55 1026.63 1026.66 1026.67 1026.69 1026.72 1026.80
1021.26 1020.81 1020.34 1019.82 1019.26 1018.65 1018.01 1017.36 1016.73 1016.18 1015.74 1015.45 1015.35 1015.46 1015.77 1016.28 1016.94 1017.71 1018.54 1019.37 1020.16 1020.88 1021.50 1022.03 1022.48 1022.88 1023.24 1023.59 1023.95 1024.33 1024.73 1025.13 1025.52 1025.87 1026.17 1026.41 1026.59 1026.71 1026.79 1026.84 1026.90 1026.97 1027.07
1020.93 1020.49 1020.02 1019.51 1018.95 1018.34 1017.69 1017.03 1016.38 1015.80 1015.32 1014.99 1014.85 1014.91 1015.18 1015.65 1016.28 1017.02 1017.84 1018.66 1019.46 1020.19 1020.85 1021.41 1021.90 1022.34 1022.75 1023.15 1023.56 1023.99 1024.44 1024.88 1025.32 1025.72 1026.08 1026.38 1026.62 1026.80 1026.94 1027.05 1027.16 1027.28 1027.42
1020.59 1020.14 1019.68 1019.17 1018.61 1017.99 1017.34 1016.66 1016.00 1015.40 1014.90 1014.55 1014.38 1014.41 1014.65 1015.09 1015.70 1016.43 1017.23 1018.05 1018.85 1019.59 1020.26 1020.85 1021.37 1021.84 1022.28 1022.72 1023.16 1023.63 1024.11 1024.60 1025.08 1025.54 1025.95 1026.32 1026.62 1026.88 1027.09 1027.28 1027.46 1027.63 1027.80
1020.17 1019.73 1019.26 1018.75 1018.19 1017.57 1016.91 1016.24 1015.57 1014.96 1014.46 1014.10 1013.92 1013.95 1014.18 1014.61 1015.21 1015.93 1016.72 1017.54 1018.35 1019.10 1019.78 1020.39 1020.93 1021.42 1021.88 1022.33 1022.80 1023.28 1023.79 1024.31 1024.82 1025.32 1025.80 1026.22 1026.61 1026.94 1027.23 1027.49 1027.73 1027.95 1028.16
Thickness
5726 5726 5725 5724 5721 5720 5718 5716 5713 5712 5710 5708 5705 5702 5701 5702 5702 5702 5702 5702 5701 5700 5699 5698 5697 5696 5694 5693 5692 5691 5689 5687 5688 5686 5683 5683 5685 5686 5686 5687 5687 5687 5688
5722 5722 5722 5721 5719 5717 5715 5713 5711 5710 5709 5707 5704 5702 5700 5699 5699 5699 5699 5699 5699 5698 5697 5696 5694 5693 5692 5690 5689 5688 5685 5685 5685 5682 5677 5673 5675 5679 5681 5682 5682 5683 5684
5722 5720 5719 5718 5717 5715 5714 5713 5710 5708 5707 5706 5703 5701 5699 5697 5696 5695 5696 5696 5697 5696 5695 5694 5693 5691 5690 5688 5687 5686 5684 5681 5682 5682 5677 5671 5667 5669 5673 5676 5677 5678 5679
5725 5721 5719 5717 5716 5715 5714 5712 5710 5708 5706 5705 5702 5698 5695 5692 5693 5693 5694 5695 5695 5694 5694 5693 5691 5690 5689 5687 5686 5686 5684 5682 5679 5680 5679 5677 5673 5668 5665 5668 5671 5673 5673
5726 5723 5721 5719 5717 5716 5713 5711 5709 5707 5705 5703 5701 5698 5695 5693 5693 5693 5693 5693 5693 5693 5692 5691 5690 5689 5687 5686 5685 5685 5684 5682 5680 5678 5676 5674 5672 5670 5665 5661 5664 5667 5668
5726 5724 5722 5719 5717 5715 5713 5710 5708 5706 5704 5702 5700 5698 5695 5693 5692 5691 5690 5690 5690 5690 5691 5690 5688 5687 5686 5685 5684 5683 5682 5680 5679 5677 5676 5674 5671 5668 5665 5661 5659 5660 5662
5725 5721 5718 5716 5714 5713 5711 5709 5707 5704 5703 5701 5699 5698 5696 5694 5692 5691 5690 5688 5687 5687 5688 5688 5687 5686 5685 5684 5683 5681 5680 5679 5677 5675 5674 5673 5672 5670 5667 5663 5658 5657 5658
5724 5722 5720 5717 5715 5713 5710 5708 5706 5704 5702 5700 5698 5698 5696 5694 5693 5692 5691 5689 5688 5688 5688 5687 5685 5684 5683 5682 5681 5679 5678 5676 5675 5674 5673 5671 5670 5670 5668 5664 5659 5654 5652
5723 5721 5720 5717 5715 5712 5710 5708 5706 5703 5702 5700 5698 5697 5696 5694 5693 5692 5691 5690 5689 5688 5687 5685 5683 5682 5681 5680 5679 5677 5675 5674 5673 5671 5671 5669 5668 5668 5667 5665 5662 5656 5649
5722 5720 5718 5717 5715 5713 5711 5709 5706 5704 5702 5700 5698 5698 5696 5695 5694 5692 5690 5689 5688 5687 5685 5683 5682 5681 5679 5678 5676 5674 5673 5671 5670 5669 5668 5667 5666 5665 5664 5662 5660 5657 5653
5720 5718 5717 5716 5714 5712 5709 5707 5705 5703 5701 5699 5698 5697 5695 5694 5693 5691 5690 5689 5687 5686 5684 5682 5680 5679 5677 5676 5674 5672 5671 5669 5667 5666 5665 5664 5663 5661 5660 5659 5657 5654 5651
5719 5717 5715 5713 5711 5709 5707 5705 5704 5702 5701 5699 5697 5696 5694 5693 5691 5690 5689 5688 5686 5684 5683 5681 5679 5677 5675 5674 5672 5669 5668 5666 5664 5663 5662 5660 5660 5658 5657 5655 5653 5651 5649
5714 5712 5711 5709 5708 5706 5705 5704 5703 5701 5700 5698 5696 5694 5692 5690 5689 5688 5688 5686 5684 5682 5681 5679 5676 5675 5673 5671 5670 5668 5666 5664 5662 5661 5659 5658 5657 5655 5653 5652 5650 5648 5647
5711 5708 5706 5706 5705 5705 5704 5702 5701 5700 5699 5696 5694 5691 5690 5689 5688 5687 5686 5684 5682 5680 5678 5676 5674 5673 5671 5669 5667 5666 5664 5661 5660 5659 5658 5656 5655 5653 5651 5649 5647 5645 5642
5706 5705 5703 5703 5702 5702 5701 5701 5699 5698 5697 5695 5692 5690 5689 5687 5686 5684 5683 5681 5680 5678 5676 5674 5671 5670 5668 5667 5665 5663 5661 5658 5657 5656 5655 5654 5653 5652 5650 5648 5644 5642 5638
5704 5704 5703 5702 5700 5699 5699 5698 5697 5696 5695 5693 5690 5689 5687 5685 5683 5682 5680 5678 5676 5674 5672 5670 5668 5666 5666 5665 5663 5661 5658 5656 5654 5652 5651 5651 5650 5649 5647 5646 5643 5640 5636
5702 5701 5700 5700 5699 5699 5698 5696 5696 5694 5692 5690 5688 5687 5685 5682 5680 5679 5676 5674 5672 5671 5668 5667 5665 5664 5663 5663 5661 5659 5656 5653 5651 5649 5647 5646 5645 5644 5642 5641 5639 5637 5634
5699 5699 5698 5697 5698 5697 5696 5694 5693 5691 5689 5686 5685 5684 5682 5680 5677 5675 5673 5671 5670 5668 5665 5663 5662 5660 5660 5660 5658 5656 5652 5650 5648 5645 5644 5641 5640 5639 5637 5635 5632 5630 5628
5698 5697 5696 5695 5694 5693 5692 5690 5688 5687 5685 5683 5682 5681 5679 5677 5674 5671 5669 5668 5666 5664 5662 5660 5658 5656 5655 5656 5654 5652 5648 5645 5642 5641 5639 5637 5635 5635 5633 5629 5626 5623 5621
5694 5693 5692 5691 5689 5689 5689 5686 5683 5682 5681 5681 5680 5679 5677 5675 5672 5670 5667 5665 5662 5660 5658 5656 5654 5653 5651 5651 5650 5647 5643 5639 5637 5635 5634 5633 5631 5630 5628 5624 5620 5616 5615
5689 5688 5687 5685 5685 5685 5684 5681 5679 5678 5679 5679 5677 5675 5673 5672 5670 5667 5664 5661 5658 5655 5653 5651 5649 5648 5647 5646 5645 5643 5639 5636 5632 5630 5628 5627 5627 5625 5623 5619 5616 5613 5610
5681 5681 5680 5678 5680 5680 5678 5676 5675 5676 5675 5675 5672 5670 5669 5668 5666 5662 5659 5656 5653 5650 5647 5645 5643 5642 5642 5641 5640 5638 5636 5633 5628 5626 5624 5622 5621 5619 5616 5613 5611 5607 5603
5675 5674 5673 5672 5673 5673 5673 5671 5671 5671 5670 5668 5666 5664 5663 5661 5660 5657 5653 5650 5647 5645 5642 5639 5637 5636 5636 5635 5634 5633 5631 5628 5624 5622 5619 5617 5615 5612 5609 5607 5604 5600 5595
5667 5667 5666 5664 5664 5665 5666 5666 5666 5665 5663 5661 5660 5658 5656 5654 5653 5651 5649 5646 5643 5640 5638 5635 5632 5630 5629 5628 5627 5626 5623 5621 5618 5615 5613 5610 5607 5604 5601 5599 5596 5592 5589
5659 5659 5658 5657 5657 5658 5658 5658 5658 5658 5656 5654 5653 5651 5650 5648 5645 5644 5642 5641 5639 5638 5635 5632 5630 5626 5624 5625 5623 5620 5618 5615 5612 5607 5603 5600 5597 5594 5592 5589 5587 5584 5581
5650 5650 5650 5650 5650 5650 5650 5650 5651 5650 5649 5646 5645 5643 5642 5640 5638 5635 5633 5633 5633 5632 5631 5630 5627 5624 5623 5621 5618 5615 5612 5609 5605 5600 5595 5592 5589 5587 5584 5582 5579 5576 5573